Flag for Slovenia Weather past 2 weeks in Celje, Slovenia

Now
56 °F

Cool.


Feels Like: 56 °F
Forecast: 51 / 68 °F
Wind: 1 mph from Southwest

Location: Celje

Current Time: May 25, 2015 at 9:55:54 PM

Latest Report: May 25, 2015 at 9:00 PM


Visibility: N/A

Pressure: 29.83 "Hg

Humidity: 92%

Dew point: 54 °F

Location of CeljeLocation

Historic Weather in Celje — Graph

°F

Celje temperature yesterday

Maximum temperature yesterday: 68 °F (at 4:00 PM)
Minimum temperature yesterday: 51 °F (at 5:00 AM)
Average temperature yesterday: 58 °F

Past Weeks' High & Low Weather Summary

 TemperatureHumidityPressure
High84 °F (May 13, 5:00 PM)98% (May 17, 4:00 AM)30.40 "Hg (May 17, 4:00 AM)
Low40 °F (May 12, 6:00 AM)37% (May 12, 1:00 PM)29.68 "Hg (May 19, 6:00 PM)
Average60 °F79%30.01 "Hg
* Reported May 10 8:00 PM — May 25 8:00 PM, Celje, Weather by CustomWeather, © 2015

Note: Actual official high and low records may vary slightly from our data, if they occured in-between our weather recording intervals... More about our weather records

Advertising

Celje weather history for previous 24 hours

 ConditionsComfort  
Time TempWeatherWind HumidityBarometerVisibility
8:00 PM
Mon, May 25
58 °FOvercast.1 mph88%29.83 "Hg25 mi
7:00 PM59 °FCool.1 mph89%29.82 "HgN/A
6:00 PM60 °FCool.2 mph85%29.84 "HgN/A
5:00 PM64 °FMild.1 mph83%29.83 "HgN/A
4:00 PM66 °FMild.1 mph67%29.84 "HgN/A
3:00 PM66 °FSprinkles. Overcast.3 mph64%29.85 "Hg25 mi
2:00 PM66 °FSprinkles. Overcast.1 mph54%29.86 "Hg28 mi
1:00 PM66 °FMild.2 mph56%29.86 "HgN/A
12:00 PM64 °FMild.2 mph64%29.88 "HgN/A
11:00 AM62 °FCool.5 mph68%29.89 "HgN/A
10:00 AM60 °FCool.5 mph75%29.90 "HgN/A
9:00 AM57 °FCool.3 mph83%29.92 "HgN/A
8:00 AM54 °FOvercast.3 mph94%29.93 "Hg31 mi
7:00 AM52 °FOvercast.3 mph97%29.93 "Hg31 mi
6:00 AM50 °FCool.2 mph97%29.95 "HgN/A
4:00 AM51 °FCool.1 mph97%29.96 "HgN/A
3:00 AM52 °FCool.No wind97%29.96 "HgN/A
2:00 AM53 °FCool.No wind97%29.97 "HgN/A
1:00 AM53 °FCool.1 mph97%29.98 "HgN/A
12:00 AM54 °FCool.1 mph97%29.98 "HgN/A
10:00 PM
Sun, May 24
54 °FCool.1 mph95%30.00 "HgN/A
9:00 PM57 °FCool.1 mph92%29.97 "HgN/A
Weather by CustomWeather, © 2015

See weather overviewHow to use our weather pages